Project,Study,Ord_Occ,Event_Num,Cast_ID,Date_Time_UTC,Date_Time_PST,Lat_Dec,Lon_Dec,Sta_ID,Line,Sta,Depth,Pressure,PrQ,Temp1,Temp1Q,Temp2,Temp2Q,TempAve,Salt1,Salt1Q,Salt1_Corr,Salt2,Salt2Q,Salt2_Corr,SaltAve_Corr,Ox1,Ox1Q,Ox1_CruiseCorr,Ox1_StaCorr,Ox2,Ox2Q,Ox2_CruiseCorr,Ox2_StaCorr,OxAve_StaCorr,Ox1uM,Ox1uM_CruiseCorr,Ox1uM_StaCorr,Ox2uM,Ox2uM_CruiseCorr,Ox2uM_StaCorr,OxAveuM_StaCorr,FluorV,FluorQ,EstChl_CruiseCorr,EstChl_StaCorr,ISUSV,ISUSQ,EstNO3_CruiseCorr,EstNO3_StaCorr,SigThetaTS1,SigThetaTS1Q,SigThetaTS2,SigThetaTS2Q,BAT,XMiss,TransQ,pH,pHQ,SPAR,SPARQ,PAR,PARQ,PoT1,PoT2,DynHt,SVA,OxSat1,OxSat2,BTL_Depth,BTL_Temp,SaltB,OxB,OxBuM,Chl-a,Phaeo,NO3,NO2,NH4,PO4,SIL
CalCOFI,2007SR,063,65,2007_063u,25-Jul-2020 17:29:32,25-Jul-2020 09:29:32,34.05442,-122.94184,076.7 080.0,076.7,080.0,516.000,520.364,,5.8663,,5.8657,,5.8660,34.2964,,34.2966,34.2983,,34.2999,34.2983,0.2963,,0.2919,0.2958,2.1504,,1.1924,0.5881,0.4420,12.886,12.9636,13.1646,93.511,,26.1733,19.6690,0.0322,,,,-99.0,,-99.0,-99.0,27.0191,,27.0206,,0.6421,85.1699,,7.533,,1.0742E+03,,6.1470E-02,,5.8215,5.8209,0.8450,,4.256,30.884,,,,,,,,,,,,
CalCOFI,2007SR,063,65,2007_063u,25-Jul-2020 17:29:40,25-Jul-2020 09:29:40,34.05441,-122.94184,076.7 080.0,076.7,080.0,515.000,519.354,,5.8721,,5.8722,,5.8722,34.2958,,34.2960,34.2976,,34.2992,34.2976,0.2925,,0.2879,0.2918,2.1452,,1.1800,0.5736,0.4327,12.720,12.7903,12.9913,93.286,,25.5246,19.2580,0.0323,,,,-99.0,,-99.0,-99.0,27.0179,,27.0192,,0.6423,85.1640,,7.533,,1.0679E+03,,6.0607E-02,,5.8274,5.8274,0.8459,,4.202,30.814,515,5.872,34.2989,0.293,12.77,,,40.38,0.00,0.13,3.24,81.59
CalCOFI,2007SR,063,65,2007_063u,25-Jul-2020 17:29:47,25-Jul-2020 09:29:47,34.05440,-122.94184,076.7 080.0,076.7,080.0,514.000,518.344,,5.8692,,5.8689,,5.8691,34.2959,,34.2961,34.2976,,34.2992,34.2977,0.2921,,0.2875,0.2914,2.1397,,1.1669,0.5583,0.4249,12.701,12.7705,12.9714,93.047,,24.8354,18.9034,0.0327,,,,-99.0,,-99.0,-99.0,27.0183,,27.0197,,0.6426,85.1578,,7.533,,1.0701E+03,,5.6462E-02,,5.8245,5.8242,0.8465,,4.195,30.733,,,,,,,,,,,,
CalCOFI,2007SR,063,65,2007_063u,25-Jul-2020 17:29:49,25-Jul-2020 09:29:49,34.05440,-122.94184,076.7 080.0,076.7,080.0,513.000,517.335,,5.8676,,5.8676,,5.8676,34.2962,,34.2964,34.2978,,34.2994,34.2979,0.2958,,0.2914,0.2953,2.1338,,1.1528,0.5419,0.4186,12.863,12.9396,13.1406,92.790,,24.0944,18.6175,0.0326,,,,-99.0,,-99.0,-99.0,27.0187,,27.0200,,0.6424,85.1630,,7.533,,1.0713E+03,,5.8142E-02,,5.8230,5.8231,0.8465,,4.248,30.647,,,,,,,,,,,,
CalCOFI,2007SR,063,65,2007_063u,25-Jul-2020 17:29:50,25-Jul-2020 09:29:50,34.05440,-122.94184,076.7 080.0,076.7,080.0,512.000,516.325,,5.8733,,5.8735,,5.8734,34.2941,,34.2943,34.2956,,34.2972,34.2958,0.2955,,0.2911,0.2950,2.1296,,1.1428,0.5302,0.4126,12.850,12.9260,13.1270,92.606,,23.5639,18.3455,0.0319,,,,-99.0,,-99.0,-99.0,27.0164,,27.0175,,0.6420,85.1703,,7.533,,1.0678E+03,,6.1735E-02,,5.8288,5.8290,0.8465,,4.245,30.590,,,,,,,,,,,,
CalCOFI,2007SR,063,65,2007_063u,25-Jul-2020 17:29:51,25-Jul-2020 09:29:51,34.05440,-122.94184,076.7 080.0,076.7,080.0,511.000,515.315,,5.8790,,5.8788,,5.8789,34.2927,,34.2929,34.2945,,34.2961,34.2945,0.2975,,0.2932,0.2970,2.1326,,1.1500,0.5385,0.4178,12.935,13.0147,13.2158,92.735,,23.9358,18.5758,0.0324,,,,-99.0,,-99.0,-99.0,27.0145,,27.0159,,0.6419,85.1724,,7.533,,1.0664E+03,,5.7937E-02,,5.8346,5.8344,0.8465,,4.273,30.636,,,,,,,,,,,,
CalCOFI,2007SR,063,65,2007_063u,25-Jul-2020 17:29:52,25-Jul-2020 09:29:52,34.05440,-122.94184,076.7 080.0,076.7,080.0,510.000,514.306,,5.8940,,5.8946,,5.8943,34.2929,,34.2931,34.2945,,34.2961,34.2946,0.3030,,0.2989,0.3028,2.1280,,1.1390,0.5257,0.4143,13.176,13.2663,13.4675,92.535,,23.3591,18.4133,0.0320,,,,-99.0,,-99.0,-99.0,27.0128,,27.0140,,0.6422,85.1678,,7.533,,1.0667E+03,,5.8715E-02,,5.8496,5.8502,0.8465,,4.355,30.581,,,,,,,,,,,,
CalCOFI,2007SR,063,65,2007_063u,25-Jul-2020 17:29:53,25-Jul-2020 09:29:53,34.05440,-122.94184,076.7 080.0,076.7,080.0,509.000,513.296,,5.8993,,5.8996,,5.8995,34.2930,,34.2932,34.2946,,34.2962,34.2947,0.2983,,0.2940,0.2979,2.1254,,1.1328,0.5185,0.4082,12.973,13.0544,13.2555,92.423,,23.0362,18.1459,0.0326,,,,-99.0,,-99.0,-99.0,27.0122,,27.0135,,0.6428,85.1549,,7.533,,1.0700E+03,,6.0303E-02,,5.8550,5.8552,0.8465,,4.288,30.548,,,,,,,,,,,,
CalCOFI,2007SR,063,65,2007_063u,25-Jul-2020 17:29:54,25-Jul-2020 09:29:54,34.05440,-122.94184,076.7 080.0,076.7,080.0,508.000,512.286,,5.9064,,5.9063,,5.9064,34.2934,,34.2936,34.2948,,34.2964,34.2950,0.2988,,0.2945,0.2984,2.1233,,1.1278,0.5126,0.4055,12.992,13.0742,13.2753,92.331,,22.7709,18.0231,0.0327,,,,-99.0,,-99.0,-99.0,27.0116,,27.0127,,0.6419,85.1726,,7.533,,1.0741E+03,,5.9807E-02,,5.8621,5.8621,0.8465,,4.295,30.522,,,,,,,,,,,,
CalCOFI,2007SR,063,65,2007_063u,25-Jul-2020 17:29:56,25-Jul-2020 09:29:56,34.05440,-122.94184,076.7 080.0,076.7,080.0,507.000,511.277,,5.9158,,5.9149,,5.9154,34.2938,,34.2940,34.2955,,34.2971,34.2956,0.3050,,0.3010,0.3049,2.1260,,1.1342,0.5201,0.4125,13.264,13.3582,13.5594,92.451,,23.1169,18.3382,0.0318,,,,-99.0,,-99.0,-99.0,27.0107,,27.0122,,0.6436,85.1378,,7.533,,1.0735E+03,,5.7813E-02,,5.8716,5.8707,0.8465,,4.386,30.568,,,,,,,,,,,,
CalCOFI,2007SR,063,65,2007_063u,25-Jul-2020 17:29:57,25-Jul-2020 09:29:57,34.05440,-122.94184,076.7 080.0,076.7,080.0,506.000,510.267,,5.9273,,5.9275,,5.9274,34.2921,,34.2923,34.2939,,34.2955,34.2939,0.3073,,0.3034,0.3073,2.1234,,1.1280,0.5129,0.4101,13.363,13.4615,13.6628,92.337,,22.7882,18.2255,0.0330,,,,-99.0,,-99.0,-99.0,27.0080,,27.0093,,0.6420,85.1720,,7.533,,1.0684E+03,,4.7778E-02,,5.8831,5.8833,0.8465,,4.419,30.539,,,,,,,,,,,,
CalCOFI,2007SR,063,65,2007_063u,25-Jul-2020 17:29:58,25-Jul-2020 09:29:58,34.05440,-122.94184,076.7 080.0,076.7,080.0,505.000,509.257,,5.9377,,5.9391,,5.9384,34.2913,,34.2915,34.2927,,34.2943,34.2929,0.3096,,0.3058,0.3097,2.1217,,1.1239,0.5082,0.4090,13.465,13.5680,13.7693,92.265,,22.5806,18.1750,0.0323,,,,-99.0,,-99.0,-99.0,27.0060,,27.0070,,0.6427,85.1567,,7.533,,1.0639E+03,,5.4204E-02,,5.8936,5.8950,0.8465,,4.454,30.523,,,,,,,,,,,,
CalCOFI,2007SR,063,65,2007_063u,25-Jul-2020 17:29:59,25-Jul-2020 09:29:59,34.05440,-122.94182,076.7 080.0,076.7,080.0,504.000,508.248,,5.9492,,5.9501,,5.9497,34.2901,,34.2903,34.2916,,34.2932,34.2918,0.3103,,0.3065,0.3104,2.1162,,1.1108,0.4928,0.4016,13.493,13.5972,13.7985,92.023,,21.8828,17.8407,0.0322,,,,-99.0,,-99.0,-99.0,27.0036,,27.0047,,0.6430,85.1499,,7.533,,1.0651E+03,,5.1855E-02,,5.9051,5.9060,0.8465,,4.465,30.451,,,,,,,,,,,,
CalCOFI,2007SR,063,65,2007_063u,25-Jul-2020 17:30:00,25-Jul-2020 09:30:00,34.05440,-122.94183,076.7 080.0,076.7,080.0,503.000,507.238,,5.9644,,5.9661,,5.9653,34.2909,,34.2911,34.2927,,34.2943,34.2927,0.3121,,0.3084,0.3123,2.1128,,1.1027,0.4834,0.3979,13.570,13.6776,13.8789,91.878,,21.4648,17.6719,0.0316,,,,-99.0,,-99.0,-99.0,27.0024,,27.0036,,0.6431,85.1469,,7.533,,1.0701E+03,,5.5341E-02,,5.9204,5.9221,0.8465,,4.492,30.415,,,,,,,,,,,,
CalCOFI,2007SR,063,65,2007_063u,25-Jul-2020 17:30:01,25-Jul-2020 09:30:01,34.05440,-122.94184,076.7 080.0,076.7,080.0,502.000,506.228,,5.9850,,5.9863,,5.9857,34.2914,,34.2916,34.2932,,34.2948,34.2932,0.3099,,0.3061,0.3100,2.1136,,1.1046,0.4856,0.3978,13.476,13.5795,13.7808,91.912,,21.5628,17.6718,0.0320,,,,-99.0,,-99.0,-99.0,27.0002,,27.0014,,0.6433,85.1432,,7.533,,1.0739E+03,,5.0013E-02,,5.9410,5.9423,0.8465,,4.463,30.440,,,,,,,,,,,,
CalCOFI,2007SR,063,65,2007_063u,25-Jul-2020 17:30:02,25-Jul-2020 09:30:02,34.05440,-122.94184,076.7 080.0,076.7,080.0,501.000,505.219,,5.9916,,5.9920,,5.9918,34.2909,,34.2911,34.2924,,34.2940,34.2926,0.3145,,0.3109,0.3148,2.1141,,1.1058,0.4870,0.4009,13.676,13.7883,13.9896,91.934,,21.6262,17.8079,0.0328,,,,-99.0,,-99.0,-99.0,26.9989,,27.0001,,0.6442,85.1242,,7.533,,1.0734E+03,,5.7334E-02,,5.9476,5.9480,0.8465,,4.530,30.451,,,,,,,,,,,,
CalCOFI,2007SR,063,65,2007_063u,25-Jul-2020 17:30:03,25-Jul-2020 09:30:03,34.05440,-122.94184,076.7 080.0,076.7,080.0,500.000,504.209,,5.9951,,5.9953,,5.9952,34.2908,,34.2910,34.2925,,34.2941,34.2926,0.3157,,0.3122,0.3161,2.1138,,1.1051,0.4861,0.4011,13.730,13.8446,14.0460,91.920,,21.5859,17.8160,0.0332,,,,-99.0,,-99.0,-99.0,26.9984,,26.9997,,0.6438,85.1333,,7.533,,1.0696E+03,,5.1822E-02,,5.9512,5.9514,0.8465,,4.548,30.449,,,,,,,,,,,,
CalCOFI,2007SR,063,65,2007_063u,25-Jul-2020 17:30:04,25-Jul-2020 09:30:04,34.05440,-122.94184,076.7 080.0,076.7,080.0,499.000,503.199,,5.9994,,5.9994,,5.9994,34.2905,,34.2907,34.2918,,34.2934,34.2921,0.3184,,0.3150,0.3189,2.1109,,1.0982,0.4781,0.3985,13.844,13.9637,14.1651,91.795,,21.2254,17.6953,0.0320,,,,-99.0,,-99.0,-99.0,26.9976,,26.9986,,0.6439,85.1312,,7.533,,1.0656E+03,,5.0407E-02,,5.9556,5.9556,0.8465,,4.586,30.410,,,,,,,,,,,,
CalCOFI,2007SR,063,65,2007_063u,25-Jul-2020 17:30:05,25-Jul-2020 09:30:05,34.05440,-122.94184,076.7 080.0,076.7,080.0,498.000,502.190,,6.0007,,6.0007,,6.0007,34.2901,,34.2903,34.2917,,34.2933,34.2918,0.3165,,0.3130,0.3169,2.1043,,1.0824,0.4597,0.3883,13.764,13.8801,14.0815,91.509,,20.4008,17.2412,0.0319,,,,-99.0,,-99.0,-99.0,26.9971,,26.9983,,0.6439,85.1305,,7.533,,1.0659E+03,,4.9845E-02,,5.9570,5.9570,0.8465,,4.560,30.316,,,,,,,,,,,,
CalCOFI,2007SR,063,65,2007_063u,25-Jul-2020 17:30:06,25-Jul-2020 09:30:06,34.05440,-122.94184,076.7 080.0,076.7,080.0,497.000,501.180,,6.0005,,6.0005,,6.0005,34.2883,,34.2885,34.2895,,34.2911,34.2898,0.3184,,0.3150,0.3189,2.1093,,1.0943,0.4736,0.3963,13.844,13.9637,14.1651,91.725,,21.0236,17.5944,0.0323,,,,-99.0,,-99.0,-99.0,26.9957,,26.9967,,0.6441,85.1263,,7.533,,1.0707E+03,,5.0740E-02,,5.9568,5.9569,0.8465,,4.586,30.387,,,,,,,,,,,,
CalCOFI,2007SR,063,65,2007_063u,25-Jul-2020 17:30:07,25-Jul-2020 09:30:07,34.05440,-122.94184,076.7 080.0,076.7,080.0,496.000,500.170,,6.0041,,6.0046,,6.0044,34.2869,,34.2871,34.2885,,34.2901,34.2886,0.3237,,0.3205,0.3244,2.1038,,1.0812,0.4583,0.3914,14.076,14.2058,14.4073,91.486,,20.3345,17.3709,0.0319,,,,-99.0,,-99.0,-99.0,26.9942,,26.9953,,0.6450,85.1074,,7.533,,1.0747E+03,,5.6268E-02,,5.9606,5.9611,0.8465,,4.663,30.311,,,,,,,,,,,,
CalCOFI,2007SR,063,65,2007_063u,25-Jul-2020 17:30:08,25-Jul-2020 09:30:08,34.05440,-122.94183,076.7 080.0,076.7,080.0,495.000,499.161,,6.0128,,6.0129,,6.0129,34.2856,,34.2858,34.2874,,34.2890,34.2874,0.3245,,0.3214,0.3252,2.1065,,1.0876,0.4658,0.3955,14.112,14.2434,14.4449,91.604,,20.6747,17.5598,0.0320,,,,-99.0,,-99.0,-99.0,26.9920,,26.9934,,0.6446,85.1161,,7.533,,1.0756E+03,,5.6623E-02,,5.9693,5.9694,0.8465,,4.676,30.356,,,,,,,,,,,,
CalCOFI,2007SR,063,65,2007_063u,25-Jul-2020 17:30:09,25-Jul-2020 09:30:09,34.05440,-122.94182,076.7 080.0,076.7,080.0,494.000,498.151,,6.0151,,6.0147,,6.0149,34.2841,,34.2843,34.2854,,34.2870,34.2857,0.3265,,0.3235,0.3273,2.1061,,1.0867,0.4647,0.3960,14.196,14.3311,14.5327,91.588,,20.6286,17.5807,0.0322,,,,-99.0,,-99.0,-99.0,26.9905,,26.9916,,0.6450,85.1061,,7.533,,1.0736E+03,,5.3716E-02,,5.9717,5.9713,0.8465,,4.705,30.351,,,,,,,,,,,,
CalCOFI,2007SR,063,65,2007_063u,25-Jul-2020 17:30:10,25-Jul-2020 09:30:10,34.05440,-122.94182,076.7 080.0,076.7,080.0,493.000,497.142,,6.0150,,6.0155,,6.0153,34.2822,,34.2824,34.2843,,34.2859,34.2842,0.3250,,0.3219,0.3258,2.1058,,1.0860,0.4638,0.3948,14.132,14.2643,14.4658,91.574,,20.5882,17.5270,0.0319,,,,-99.0,,-99.0,-99.0,26.9890,,26.9906,,0.6452,85.1028,,7.533,,1.0719E+03,,5.5730E-02,,5.9717,5.9722,0.8465,,4.683,30.347,,,,,,,,,,,,
CalCOFI,2007SR,063,65,2007_063u,25-Jul-2020 17:30:11,25-Jul-2020 09:30:11,34.05440,-122.94182,076.7 080.0,076.7,080.0,492.000,496.132,,6.0295,,6.0300,,6.0298,34.2825,,34.2827,34.2838,,34.2854,34.2841,0.3311,,0.3283,0.3321,2.1047,,1.0834,0.4608,0.3965,14.400,14.5441,14.7457,91.528,,20.4556,17.6007,0.0315,,,,-99.0,,-99.0,-99.0,26.9874,,26.9884,,0.6442,85.1251,,7.533,,1.0702E+03,,5.9363E-02,,5.9862,5.9868,0.8465,,4.774,30.342,,,,,,,,,,,,
CalCOFI,2007SR,063,65,2007_063u,25-Jul-2020 17:30:11,25-Jul-2020 09:30:11,34.05440,-122.94182,076.7 080.0,076.7,080.0,491.000,495.122,,6.0357,,6.0356,,6.0357,34.2821,,34.2823,34.2837,,34.2853,34.2838,0.3273,,0.3243,0.3282,2.1042,,1.0822,0.4594,0.3938,14.235,14.3718,14.5734,91.502,,20.3806,17.4770,0.0320,,,,-99.0,,-99.0,-99.0,26.9863,,26.9875,,0.6441,85.1263,,7.533,,1.0685E+03,,5.4231E-02,,5.9925,5.9924,0.8465,,4.720,30.337,,,,,,,,,,,,
CalCOFI,2007SR,063,65,2007_063u,25-Jul-2020 17:30:12,25-Jul-2020 09:30:12,34.05440,-122.94182,076.7 080.0,076.7,080.0,490.000,494.113,,6.0382,,6.0385,,6.0384,34.2820,,34.2822,34.2833,,34.2849,34.2836,0.3257,,0.3226,0.3265,2.1037,,1.0810,0.4580,0.3923,14.162,14.2956,14.4971,91.484,,20.3287,17.4129,0.0331,,,,-99.0,,-99.0,-99.0,26.9859,,26.9869,,0.6442,85.1242,,7.533,,1.0683E+03,,5.9447E-02,,5.9951,5.9954,0.8465,,4.696,30.333,,,,,,,,,,,,
CalCOFI,2007SR,063,65,2007_063u,25-Jul-2020 17:30:13,25-Jul-2020 09:30:13,34.05440,-122.94183,076.7 080.0,076.7,080.0,489.000,493.103,,6.0390,,6.0391,,6.0391,34.2818,,34.2820,34.2832,,34.2848,34.2834,0.3258,,0.3227,0.3266,2.1019,,1.0767,0.4530,0.3898,14.166,14.2998,14.5013,91.405,,20.1009,17.3011,0.0326,,,,-99.0,,-99.0,-99.0,26.9857,,26.9868,,0.6443,85.1229,,7.533,,1.0701E+03,,5.6078E-02,,5.9960,5.9961,0.8465,,4.697,30.307,,,,,,,,,,,,
CalCOFI,2007SR,063,65,2007_063u,25-Jul-2020 17:30:15,25-Jul-2020 09:30:15,34.05440,-122.94184,076.7 080.0,076.7,080.0,488.000,492.094,,6.0392,,6.0390,,6.0391,34.2818,,34.2820,34.2833,,34.2849,34.2835,0.3299,,0.3270,0.3309,2.0997,,1.0714,0.4468,0.3889,14.346,14.4877,14.6893,91.309,,19.8241,17.2567,0.0332,,,,-99.0,,-99.0,-99.0,26.9856,,26.9868,,0.6450,85.1068,,7.533,,1.0721E+03,,5.8925E-02,,5.9962,5.9961,0.8465,,4.757,30.275,,,,,,,,,,,,
CalCOFI,2007SR,063,65,2007_063u,25-Jul-2020 17:30:16,25-Jul-2020 09:30:16,34.05440,-122.94184,076.7 080.0,076.7,080.0,487.000,491.084,,6.0404,,6.0401,,6.0403,34.2817,,34.2819,34.2833,,34.2849,34.2834,0.3305,,0.3276,0.3315,2.0945,,1.0590,0.4324,0.3820,14.373,14.5159,14.7175,91.082,,19.1696,16.9436,0.0312,,,,-99.0,,-99.0,-99.0,26.9854,,26.9867,,0.6442,85.1233,,7.533,,1.0724E+03,,5.8763E-02,,5.9976,5.9973,0.8465,,4.766,30.201,,,,,,,,,,,,
CalCOFI,2007SR,063,65,2007_063u,25-Jul-2020 17:30:17,25-Jul-2020 09:30:17,34.05440,-122.94182,076.7 080.0,076.7,080.0,486.000,490.074,,6.0451,,6.0451,,6.0451,34.2817,,34.2819,34.2833,,34.2849,34.2834,0.3309,,0.3281,0.3319,2.0980,,1.0674,0.4421,0.3870,14.389,14.5326,14.7342,91.234,,19.6079,17.1711,0.0319,,,,-99.0,,-99.0,-99.0,26.9848,,26.9860,,0.6441,85.1254,,7.533,,1.0721E+03,,5.0602E-02,,6.0023,6.0023,0.8465,,4.772,30.255,,,,,,,,,,,,
CalCOFI,2007SR,063,65,2007_063u,25-Jul-2020 17:30:19,25-Jul-2020 09:30:19,34.05440,-122.94182,076.7 080.0,076.7,080.0,485.000,489.065,,6.0511,,6.0514,,6.0513,34.2806,,34.2808,34.2821,,34.2837,34.2823,0.3375,,0.3350,0.3388,2.0985,,1.0685,0.4435,0.3912,14.679,14.8353,15.0371,91.255,,19.6684,17.3528,0.0330,,,,-99.0,,-99.0,-99.0,26.9831,,26.9843,,0.6435,85.1401,,7.533,,1.0732E+03,,5.6206E-02,,6.0084,6.0087,0.8465,,4.868,30.266,,,,,,,,,,,,
CalCOFI,2007SR,063,65,2007_063u,25-Jul-2020 17:30:19,25-Jul-2020 09:30:19,34.05440,-122.94182,076.7 080.0,076.7,080.0,484.000,488.055,,6.0636,,6.0641,,6.0639,34.2786,,34.2788,34.2801,,34.2817,34.2803,0.3338,,0.3311,0.3350,2.0953,,1.0609,0.4346,0.3848,14.516,14.6652,14.8668,91.117,,19.2705,17.0687,0.0325,,,,-99.0,,-99.0,-99.0,26.9799,,26.9810,,0.6430,85.1499,,7.533,,1.0744E+03,,5.7683E-02,,6.0210,6.0214,0.8465,,4.816,30.228,,,,,,,,,,,,
CalCOFI,2007SR,063,65,2007_063u,25-Jul-2020 17:30:20,25-Jul-2020 09:30:20,34.05440,-122.94182,076.7 080.0,076.7,080.0,483.000,487.046,,6.0690,,6.0690,,6.0690,34.2782,,34.2784,34.2797,,34.2813,34.2799,0.3345,,0.3318,0.3357,2.0938,,1.0573,0.4304,0.3831,14.546,14.6965,14.8982,91.053,,19.0860,16.9921,0.0320,,,,-99.0,,-99.0,-99.0,26.9789,,26.9801,,0.6432,85.1456,,7.533,,1.0760E+03,,5.3549E-02,,6.0264,6.0264,0.8465,,4.826,30.211,,,,,,,,,,,,
CalCOFI,2007SR,063,65,2007_063u,25-Jul-2020 17:30:21,25-Jul-2020 09:30:21,34.05440,-122.94182,076.7 080.0,076.7,080.0,482.000,486.036,,6.0735,,6.0738,,6.0737,34.2782,,34.2784,34.2795,,34.2811,34.2798,0.3370,,0.3344,0.3383,2.0942,,1.0583,0.4315,0.3849,14.656,14.8113,15.0130,91.071,,19.1379,17.0755,0.0317,,,,-99.0,,-99.0,-99.0,26.9784,,26.9793,,0.6436,85.1380,,7.533,,1.0778E+03,,5.4403E-02,,6.0310,6.0313,0.8465,,4.863,30.220,,,,,,,,,,,,
CalCOFI,2007SR,063,65,2007_063u,25-Jul-2020 17:30:22,25-Jul-2020 09:30:22,34.05440,-122.94182,076.7 080.0,076.7,080.0,481.000,485.027,,6.0809,,6.0808,,6.0809,34.2798,,34.2800,34.2816,,34.2832,34.2816,0.3385,,0.3360,0.3399,2.0939,,1.0576,0.4307,0.3853,14.720,14.8781,15.0799,91.058,,19.1004,17.0902,0.0325,,,,-99.0,,-99.0,-99.0,26.9787,,26.9802,,0.6433,85.1438,,7.533,,1.0795E+03,,5.0780E-02,,6.0385,6.0383,0.8465,,4.885,30.221,,,,,,,,,,,,
CalCOFI,2007SR,063,65,2007_063u,25-Jul-2020 17:30:22,25-Jul-2020 09:30:22,34.05440,-122.94183,076.7 080.0,076.7,080.0,480.000,484.017,,6.0931,,6.0940,,6.0936,34.2811,,34.2813,34.2827,,34.2843,34.2828,0.3362,,0.3336,0.3375,2.0929,,1.0552,0.4279,0.3827,14.619,14.7727,14.9744,91.014,,18.9735,16.9740,0.0321,,,,-99.0,,-99.0,-99.0,26.9781,,26.9793,,0.6430,85.1496,,7.533,,1.0788E+03,,5.6321E-02,,6.0507,6.0516,0.8465,,4.853,30.216,,,,,,,,,,,,
CalCOFI,2007SR,063,65,2007_063u,25-Jul-2020 17:30:24,25-Jul-2020 09:30:24,34.05440,-122.94184,076.7 080.0,076.7,080.0,479.000,483.008,,6.0916,,6.0907,,6.0912,34.2795,,34.2797,34.2805,,34.2821,34.2809,0.3354,,0.3328,0.3366,2.0929,,1.0552,0.4279,0.3823,14.588,14.7403,14.9420,91.012,,18.9677,16.9549,0.0323,,,,-99.0,,-99.0,-99.0,26.9771,,26.9780,,0.6430,85.1498,,7.534,,1.0758E+03,,5.3225E-02,,6.0493,6.0484,0.8465,,4.843,30.212,,,,,,,,,,,,
CalCOFI,2007SR,063,65,2007_063u,25-Jul-2020 17:30:25,25-Jul-2020 09:30:25,34.05440,-122.94184,076.7 080.0,076.7,080.0,478.000,481.998,,6.0795,,6.0797,,6.0796,34.2760,,34.2762,34.2775,,34.2791,34.2777,0.3436,,0.3413,0.3452,2.0932,,1.0559,0.4287,0.3870,14.942,15.1099,15.3117,91.028,,19.0139,17.1628,0.0323,,,,-99.0,,-99.0,-99.0,26.9758,,26.9770,,0.6430,85.1498,,7.534,,1.0720E+03,,5.3616E-02,,6.0374,6.0375,0.8465,,4.959,30.209,,,,,,,,,,,,
CalCOFI,2007SR,063,65,2007_063u,25-Jul-2020 17:30:26,25-Jul-2020 09:30:26,34.05440,-122.94183,076.7 080.0,076.7,080.0,477.000,480.989,,6.1010,,6.1003,,6.1007,34.2778,,34.2780,34.2793,,34.2809,34.2795,0.3408,,0.3384,0.3423,2.0918,,1.0526,0.4248,0.3836,14.818,14.9804,15.1822,90.966,,18.8351,17.0087,0.0324,,,,-99.0,,-99.0,-99.0,26.9745,,26.9757,,0.6430,85.1498,,7.534,,1.0714E+03,,5.7602E-02,,6.0588,6.0581,0.8465,,4.920,30.204,,,,,,,,,,,,
CalCOFI,2007SR,063,65,2007_063u,25-Jul-2020 17:30:27,25-Jul-2020 09:30:27,34.05440,-122.94182,076.7 080.0,076.7,080.0,476.000,479.979,,6.1078,,6.1072,,6.1075,34.2758,,34.2760,34.2774,,34.2790,34.2775,0.3455,,0.3433,0.3472,2.0912,,1.0511,0.4232,0.3852,15.023,15.1944,15.3963,90.939,,18.7573,17.0768,0.0329,,,,-99.0,,-99.0,-99.0,26.9720,,26.9734,,0.6430,85.1498,,7.533,,1.0746E+03,,5.8547E-02,,6.0657,6.0651,0.8465,,4.989,30.199,,,,,,,,,,,,
CalCOFI,2007SR,063,65,2007_063u,25-Jul-2020 17:30:28,25-Jul-2020 09:30:28,34.05440,-122.94182,076.7 080.0,076.7,080.0,475.000,478.970,,6.1069,,6.1071,,6.1070,34.2752,,34.2754,34.2768,,34.2784,34.2769,0.3449,,0.3427,0.3465,2.0909,,1.0504,0.4223,0.3844,15.001,15.1714,15.3733,90.928,,18.7255,17.0494,0.0317,,,,-99.0,,-99.0,-99.0,26.9716,,26.9729,,0.6440,85.1295,,7.535,,1.0792E+03,,5.3846E-02,,6.0649,6.0651,0.8465,,4.981,30.195,,,,,,,,,,,,
CalCOFI,2007SR,063,65,2007_063u,25-Jul-2020 17:30:29,25-Jul-2020 09:30:29,34.05440,-122.94182,076.7 080.0,076.7,080.0,474.000,477.960,,6.1070,,6.1070,,6.1070,34.2751,,34.2753,34.2765,,34.2781,34.2767,0.3422,,0.3399,0.3437,2.0907,,1.0499,0.4218,0.3828,14.880,15.0451,15.2470,90.916,,18.6909,16.9690,0.0325,,,,-99.0,,-99.0,-99.0,26.9716,,26.9727,,0.6430,85.1497,,7.534,,1.0827E+03,,5.1185E-02,,6.0651,6.0651,0.8465,,4.941,30.191,,,,,,,,,,,,
CalCOFI,2007SR,063,65,2007_063u,25-Jul-2020 17:30:30,25-Jul-2020 09:30:30,34.05440,-122.94182,076.7 080.0,076.7,080.0,473.000,476.950,,6.1136,,6.1141,,6.1139,34.2753,,34.2755,34.2768,,34.2784,34.2770,0.3446,,0.3424,0.3462,2.0900,,1.0483,0.4198,0.3830,14.985,15.1547,15.3566,90.887,,18.6073,16.9820,0.0331,,,,-99.0,,-99.0,-99.0,26.9709,,26.9720,,0.6430,85.1498,,7.535,,1.0835E+03,,5.3204E-02,,6.0717,6.0722,0.8465,,4.977,30.187,,,,,,,,,,,,
CalCOFI,2007SR,063,65,2007_063u,25-Jul-2020 17:30:31,25-Jul-2020 09:30:31,34.05440,-122.94184,076.7 080.0,076.7,080.0,472.000,475.941,,6.1227,,6.1230,,6.1229,34.2752,,34.2754,34.2767,,34.2783,34.2769,0.3502,,0.3482,0.3521,2.0898,,1.0478,0.4193,0.3857,15.230,15.4105,15.6125,90.879,,18.5843,17.0984,0.0330,,,,-99.0,,-99.0,-99.0,26.9697,,26.9708,,0.6444,85.1195,,7.537,,1.0816E+03,,5.2667E-02,,6.0809,6.0812,0.8465,,5.059,30.190,,,,,,,,,,,,
CalCOFI,2007SR,063,65,2007_063u,25-Jul-2020 17:30:32,25-Jul-2020 09:30:32,34.05440,-122.94184,076.7 080.0,076.7,080.0,471.000,474.931,,6.1307,,6.1318,,6.1313,34.2751,,34.2753,34.2765,,34.2781,34.2767,0.3472,,0.3451,0.3490,2.0891,,1.0461,0.4173,0.3832,15.100,15.2748,15.4767,90.847,,18.4920,16.9844,0.0322,,,,-99.0,,-99.0,-99.0,26.9685,,26.9695,,0.6428,85.1536,,7.537,,1.0793E+03,,5.3025E-02,,6.0890,6.0901,0.8465,,5.017,30.185,,,,,,,,,,,,
CalCOFI,2007SR,063,65,2007_063u,25-Jul-2020 17:30:33,25-Jul-2020 09:30:33,34.05440,-122.94184,076.7 080.0,076.7,080.0,470.000,473.922,,6.1396,,6.1403,,6.1400,34.2751,,34.2753,34.2764,,34.2780,34.2767,0.3484,,0.3463,0.3502,2.0870,,1.0411,0.4115,0.3809,15.152,15.3291,15.5310,90.760,,18.2411,16.8861,0.0319,,,,-99.0,,-99.0,-99.0,26.9673,,26.9683,,0.6426,85.1590,,7.537,,1.0778E+03,,4.8678E-02,,6.0980,6.0986,0.8465,,5.036,30.162,,,,,,,,,,,,
CalCOFI,2007SR,063,65,2007_063u,25-Jul-2020 17:30:34,25-Jul-2020 09:30:34,34.05440,-122.94184,076.7 080.0,076.7,080.0,469.000,472.912,,6.1438,,6.1437,,6.1438,34.2746,,34.2748,34.2760,,34.2776,34.2762,0.3515,,0.3496,0.3534,2.0880,,1.0435,0.4142,0.3838,15.284,15.4669,15.6689,90.801,,18.3593,17.0141,0.0328,,,,-99.0,,-99.0,-99.0,26.9665,,26.9676,,0.6427,85.1555,,7.536,,1.0779E+03,,4.8940E-02,,6.1022,6.1021,0.8465,,5.080,30.178,,,,,,,,,,,,
CalCOFI,2007SR,063,65,2007_063u,25-Jul-2020 17:30:35,25-Jul-2020 09:30:35,34.05440,-122.94184,076.7 080.0,076.7,080.0,468.000,471.903,,6.1406,,6.1402,,6.1404,34.2731,,34.2733,34.2744,,34.2760,34.2747,0.3514,,0.3495,0.3533,2.0879,,1.0432,0.4140,0.3837,15.281,15.4637,15.6657,90.796,,18.3449,17.0053,0.0323,,,,-99.0,,-99.0,-99.0,26.9656,,26.9667,,0.6428,85.1542,,7.537,,1.0805E+03,,4.9374E-02,,6.0991,6.0987,0.8465,,5.078,30.174,,,,,,,,,,,,
CalCOFI,2007SR,063,65,2007_063u,25-Jul-2020 17:30:36,25-Jul-2020 09:30:36,34.05440,-122.94182,076.7 080.0,076.7,080.0,467.000,470.893,,6.1382,,6.1384,,6.1383,34.2717,,34.2719,34.2732,,34.2748,34.2734,0.3513,,0.3494,0.3532,2.0864,,1.0397,0.4098,0.3815,15.277,15.4596,15.6615,90.730,,18.1546,16.9081,0.0333,,,,-99.0,,-99.0,-99.0,26.9649,,26.9660,,0.6430,85.1497,,7.538,,1.0839E+03,,4.8486E-02,,6.0968,6.0970,0.8465,,5.077,30.150,,,,,,,,,,,,
CalCOFI,2007SR,063,65,2007_063u,25-Jul-2020 17:30:37,25-Jul-2020 09:30:37,34.05440,-122.94182,076.7 080.0,076.7,080.0,466.000,469.884,,6.1397,,6.1399,,6.1398,34.2709,,34.2711,34.2725,,34.2741,34.2726,0.3573,,0.3556,0.3595,2.0867,,1.0404,0.4106,0.3851,15.539,15.7331,15.9351,90.747,,18.2036,17.0694,0.0330,,,,-99.0,,-99.0,-99.0,26.9640,,26.9652,,0.6427,85.1564,,7.538,,1.0869E+03,,5.0516E-02,,6.0984,6.0987,0.8465,,5.164,30.157,,,,,,,,,,,,
CalCOFI,2007SR,063,65,2007_063u,25-Jul-2020 17:30:38,25-Jul-2020 09:30:38,34.05440,-122.94183,076.7 080.0,076.7,080.0,465.000,468.875,,6.1430,,6.1431,,6.1431,34.2709,,34.2711,34.2724,,34.2740,34.2726,0.3584,,0.3568,0.3606,2.0863,,1.0394,0.4095,0.3851,15.587,15.7832,15.9853,90.726,,18.1431,17.0642,0.0322,,,,-99.0,,-99.0,-99.0,26.9636,,26.9647,,0.6422,85.1671,,7.537,,1.0891E+03,,4.9947E-02,,6.1018,6.1019,0.8465,,5.180,30.152,,,,,,,,,,,,